Orbital elements:
2012 UT158
Epoch 2012 Sept. 30.0 TT = JDT 2456200.5 MPC
M 356.69903 (2000.0) P Q
n 0.18530662 Peri. 8.10235 +0.79983274 -0.58459937
a 3.0470209 Node 29.04446 +0.53378861 +0.58913350
e 0.5238833 Incl. 16.27484 +0.27447643 +0.55782192
P 5.32 H 19.7 G 0.15 U 7